• In Kazakhstan
  • List of Countries
  • For 7 days
  • Water Temperature
  • Satellite Maps
  • Weather Map
  • News
  • Weather Widgets
  • user-avatar
    Login

    Hourly Weather Neuquén

    Today, 21 July, Sunday

    Time Temperature Precipitation Wind Pressure Humidity
    00:00 +8°C° 0 mm 5 mps 721 mmHg 60%
    01:00 +8°C° 0 mm 4 mps 721 mmHg 60%
    02:00 +8°C° 0 mm 5 mps 722 mmHg 54%
    03:00 +6°C° 0 mm 7 mps 723 mmHg 49%
    04:00 +6°C° 0 mm 8 mps 723 mmHg 44%
    05:00 +5°C° 0 mm 7 mps 723 mmHg 44%
    06:00 +5°C° 0 mm 6 mps 724 mmHg 44%
    07:00 +5°C° 0 mm 5 mps 724 mmHg 44%
    08:00 +6°C° 0 mm 9 mps 725 mmHg 39%
    09:00 +7°C° 0 mm 13 mps 725 mmHg 35%
    10:00 +9°C° 0 mm 17 mps 726 mmHg 30%
    11:00 +9°C° 0 mm 17 mps 726 mmHg 28%
    12:00 +10°C° 0 mm 17 mps 726 mmHg 25%
    13:00 +10°C° 0 mm 18 mps 726 mmHg 23%
    14:00 +9°C° 0 mm 15 mps 727 mmHg 25%
    15:00 +9°C° 0 mm 13 mps 727 mmHg 26%
    16:00 +8°C° 0 mm 11 mps 728 mmHg 28%
    17:00 +8°C° 0 mm 10 mps 729 mmHg 33%
    18:00 +7°C° 0 mm 9 mps 729 mmHg 38%
    19:00 +6°C° 0 mm 8 mps 730 mmHg 42%
    20:00 +6°C° 0 mm 8 mps 731 mmHg 44%
    21:00 +5°C° 0 mm 8 mps 732 mmHg 45%
    22:00 +5°C° 0 mm 7 mps 733 mmHg 47%
    23:00 +4°C° 0 mm 7 mps 733 mmHg 47%

    Tomorrow, 22 July, Monday

    Time Temperature Precipitation Wind Pressure Humidity
    00:00 +4°C° 0 mm 7 mps 734 mmHg 48%
    01:00 +3°C° 0 mm 7 mps 734 mmHg 49%
    02:00 +3°C° 0 mm 6 mps 735 mmHg 50%
    03:00 +2°C° 0 mm 5 mps 735 mmHg 51%
    04:00 +2°C° 0 mm 5 mps 735 mmHg 52%
    05:00 +2°C° 0 mm 5 mps 736 mmHg 52%
    06:00 +1°C° 0 mm 5 mps 736 mmHg 53%
    07:00 +1°C° 0 mm 5 mps 736 mmHg 53%
    08:00 +3°C° 0 mm 6 mps 737 mmHg 47%
    09:00 +5°C° 0 mm 7 mps 737 mmHg 42%
    10:00 +6°C° 0 mm 8 mps 738 mmHg 36%
    11:00 +7°C° 0 mm 8 mps 738 mmHg 34%
    12:00 +7°C° 0 mm 8 mps 737 mmHg 31%
    13:00 +9°C° 0 mm 7 mps 737 mmHg 29%
    14:00 +8°C° 0 mm 7 mps 737 mmHg 29%
    15:00 +8°C° 0 mm 6 mps 738 mmHg 30%
    16:00 +8°C° 0 mm 5 mps 738 mmHg 30%
    17:00 +7°C° 0 mm 4 mps 738 mmHg 34%
    18:00 +6°C° 0 mm 4 mps 738 mmHg 38%
    19:00 +5°C° 0 mm 3 mps 739 mmHg 42%
    20:00 +5°C° 0 mm 3 mps 739 mmHg 46%
    21:00 +4°C° 0 mm 3 mps 739 mmHg 49%
    22:00 +4°C° 0 mm 3 mps 740 mmHg 52%
    23:00 +3°C° 0 mm 3 mps 740 mmHg 54%

    Day after tomorrow, 23 July, Tuesday

    Time Temperature Precipitation Wind Pressure Humidity
    00:00 +3°C° 0 mm 3 mps 739 mmHg 55%
    01:00 +2°C° 0 mm 3 mps 739 mmHg 57%
    02:00 +3°C° 0 mm 2 mps 739 mmHg 57%
    03:00 +3°C° 0 mm 2 mps 739 mmHg 57%
    04:00 +3°C° 0 mm 2 mps 739 mmHg 57%
    05:00 +3°C° 0 mm 2 mps 740 mmHg 57%
    06:00 +1°C° 0 mm 3 mps 740 mmHg 57%
    07:00 +1°C° 0 mm 3 mps 740 mmHg 58%
    08:00 +3°C° 0 mm 3 mps 740 mmHg 53%
    09:00 +5°C° 0 mm 4 mps 741 mmHg 48%
    10:00 +6°C° 0 mm 4 mps 741 mmHg 42%
    11:00 +7°C° 0 mm 4 mps 740 mmHg 40%
    12:00 +8°C° 0 mm 4 mps 740 mmHg 38%
    13:00 +9°C° 0 mm 5 mps 740 mmHg 36%
    14:00 +8°C° 0 mm 4 mps 740 mmHg 37%
    15:00 +8°C° 0 mm 4 mps 740 mmHg 37%
    16:00 +8°C° 0 mm 4 mps 740 mmHg 38%
    17:00 +8°C° 0 mm 3 mps 741 mmHg 42%
    18:00 +7°C° 0 mm 3 mps 741 mmHg 45%
    19:00 +5°C° 0 mm 3 mps 742 mmHg 49%
    20:00 +5°C° 0 mm 3 mps 742 mmHg 49%
    21:00 +6°C° 0 mm 2 mps 743 mmHg 50%
    22:00 +5°C° 0 mm 2 mps 743 mmHg 50%
    23:00 +5°C° 0 mm 2 mps 743 mmHg 51%

    24 July, Wednesday

    Time Temperature Precipitation Wind Pressure Humidity
    00:00 +5°C° 0 mm 2 mps 743 mmHg 52%
    01:00 +4°C° 0 mm 2 mps 744 mmHg 52%
    02:00 +4°C° 0 mm 2 mps 744 mmHg 53%
    03:00 +4°C° 0 mm 2 mps 744 mmHg 54%
    04:00 +3°C° 0 mm 2 mps 744 mmHg 55%
    05:00 +3°C° 0 mm 2 mps 744 mmHg 58%
    06:00 +3°C° 0 mm 1 mps 744 mmHg 60%
    07:00 +3°C° 0 mm 1 mps 744 mmHg 62%
    08:00 +5°C° 0 mm 1 mps 744 mmHg 55%
    09:00 +7°C° 0 mm 1 mps 745 mmHg 49%
    10:00 +7°C° 0 mm 2 mps 745 mmHg 42%
    11:00 +9°C° 0 mm 2 mps 745 mmHg 38%
    12:00 +10°C° 0 mm 2 mps 744 mmHg 35%
    13:00 +11°C° 0 mm 3 mps 744 mmHg 31%
    14:00 +11°C° 0 mm 3 mps 743 mmHg 32%
    15:00 +11°C° 0 mm 3 mps 743 mmHg 32%
    16:00 +11°C° 0 mm 3 mps 743 mmHg 32%
    17:00 +10°C° 0 mm 3 mps 743 mmHg 35%
    18:00 +9°C° 0 mm 3 mps 743 mmHg 37%
    19:00 +8°C° 0 mm 3 mps 743 mmHg 40%
    20:00 +7°C° 0 mm 3 mps 742 mmHg 41%
    21:00 +7°C° 0 mm 3 mps 742 mmHg 41%
    22:00 +5°C° 0 mm 4 mps 742 mmHg 42%
    23:00 +5°C° 0 mm 4 mps 742 mmHg 42%

    25 July, Thursday

    Time Temperature Precipitation Wind Pressure Humidity
    00:00 +5°C° 0 mm 4 mps 741 mmHg 42%
    01:00 +5°C° 0 mm 4 mps 741 mmHg 42%
    02:00 +4°C° 0 mm 4 mps 740 mmHg 42%
    03:00 +4°C° 0 mm 4 mps 740 mmHg 41%
    04:00 +4°C° 0 mm 4 mps 739 mmHg 41%
    05:00 +4°C° 0 mm 4 mps 739 mmHg 44%
    06:00 +3°C° 0 mm 4 mps 739 mmHg 46%
    07:00 +3°C° 0 mm 4 mps 739 mmHg 48%
    08:00 +5°C° 0 mm 5 mps 739 mmHg 42%
    09:00 +7°C° 0 mm 6 mps 738 mmHg 35%
    10:00 +9°C° 0 mm 7 mps 738 mmHg 29%
    11:00 +11°C° 0 mm 7 mps 738 mmHg 27%
    12:00 +13°C° 0 mm 6 mps 737 mmHg 25%
    13:00 +14°C° 0 mm 6 mps 736 mmHg 22%
    14:00 +13°C° 0 mm 5 mps 736 mmHg 24%
    15:00 +13°C° 0 mm 4 mps 736 mmHg 26%
    16:00 +12°C° 0 mm 3 mps 735 mmHg 28%
    17:00 +12°C° 0 mm 2 mps 735 mmHg 31%
    18:00 +9°C° 0 mm 2 mps 736 mmHg 33%
    19:00 +9°C° 0 mm 1 mps 736 mmHg 36%
    20:00 +8°C° 0 mm 2 mps 736 mmHg 36%
    21:00 +7°C° 0 mm 2 mps 736 mmHg 37%
    22:00 +7°C° 0 mm 2 mps 737 mmHg 37%
    23:00 +7°C° 0 mm 2 mps 737 mmHg 39%

    26 July, Friday

    Time Temperature Precipitation Wind Pressure Humidity
    00:00 +7°C° 0 mm 1 mps 737 mmHg 41%
    01:00 +7°C° 0 mm 1 mps 737 mmHg 42%
    02:00 +7°C° 0 mm 1 mps 738 mmHg 43%
    03:00 +7°C° 0 mm 1 mps 738 mmHg 44%
    04:00 +7°C° 0 mm 1 mps 738 mmHg 45%
    05:00 +7°C° 0 mm 1 mps 738 mmHg 47%
    06:00 +7°C° 0 mm 1 mps 738 mmHg 48%
    07:00 +7°C° 0 mm 1 mps 738 mmHg 49%
    08:00 +9°C° 0 mm 1 mps 739 mmHg 44%
    09:00 +10°C° 0 mm 1 mps 739 mmHg 40%
    10:00 +11°C° 0 mm 1 mps 739 mmHg 35%
    11:00 +12°C° 0 mm 1 mps 739 mmHg 35%
    12:00 +13°C° 0 mm 1 mps 739 mmHg 34%
    13:00 +13°C° 0 mm 2 mps 738 mmHg 33%
    14:00 +13°C° 0 mm 2 mps 739 mmHg 36%
    15:00 +13°C° 0 mm 2 mps 739 mmHg 38%
    16:00 +13°C° 0 mm 2 mps 739 mmHg 41%
    17:00 +12°C° 0 mm 2 mps 740 mmHg 45%
    18:00 +10°C° 0 mm 2 mps 740 mmHg 48%
    19:00 +10°C° 0 mm 3 mps 741 mmHg 52%
    20:00 +9°C° 0 mm 3 mps 741 mmHg 52%
    21:00 +8°C° 0 mm 4 mps 742 mmHg 52%
    22:00 +7°C° 0 mm 5 mps 742 mmHg 52%
    23:00 +7°C° 0 mm 5 mps 742 mmHg 52%
    Show more